McCall, ID

7:18 AM MST on January 18, 2017 (GMT -0700)
McCall

Weather History for KMYL - April, 2014

Change the Weather History Date:

Thursday, April 24, 2014

  Actual Average Record
Temperature  
Mean Temperature 39 °F 39 °F  
Max Temperature 45 °F 52 °F 80 °F (1977)
Min Temperature 32 °F 27 °F 12 °F (1950)
Degree Days  
Heating Degree Days 26 26  
Month to date heating degree days 625 699  
Since 1 July heating degree days 7631 8488  
Cooling Degree Days 0 0  
Month to date cooling degree days 0 0  
Year to date cooling degree days 0 0  
Moisture  
Dew Point 33 °F    
Average Humidity 81    
Maximum Humidity 92    
Minimum Humidity 70    
Precipitation  
Precipitation 0.51 in 0.06 in 1.00 in (1930)
Month to date precipitation 1.69 1.55  
Year to date precipitation 12.64 7.22  
Sea Level Pressure  
Sea Level Pressure 29.89 in    
Wind  
Wind Speed 6 mph (SSE)    
Max Wind Speed 21 mph    
Max Gust Speed 26 mph    
Visibility 6 miles    
Events Rain , Snow    
T = Trace of Precipitation, MM = Missing Value Source: NWS Daily Summary

Daily Weather History Graph

Daily Weather History Graph

Search for Another Location

Airport or City:

Trip Planner

Search our weather history database for the weather conditions in past years. The results will help you decide how hot, cold, wet, or windy it might be!

Date:

Astronomy

Apr. 24, 2014 Rise Set
Actual Time 6:44 AM MDT 8:41 PM MDT
Civil Twilight 6:13 AM MDT 9:12 PM MDT
Nautical Twilight 5:34 AM MDT 9:51 PM MDT
Astronomical Twilight 4:52 AM MDT 10:34 PM MDT
Moon 4:11 AM MDT (4/24) 3:49 PM MDT (4/24)
Length of Visible Light 14h 59m
Length of Day
13h 56m
Waning Crescent, 24% of the Moon is Illuminated
Apr 24
Waning Crescent
Apr 29
New
May 6
First Quarter
May 14
Full
May 21
Last Quarter

Hourly Weather History & Observations

Time (MDT) Temp. Windchill Dew Point Humidity Pressure Visibility Wind Dir Wind Speed Gust Speed Precip Events Conditions
12:51 AM 34.0 °F - 30.0 °F 85% 29.96 in 10.0 mi Calm Calm - N/A   Overcast
1:51 AM 35.1 °F - 30.9 °F 85% 29.95 in 10.0 mi Calm Calm - N/A   Overcast
2:51 AM 37.0 °F 31.0 °F 30.9 °F 79% 29.92 in 10.0 mi SSE 8.1 mph - N/A   Overcast
3:51 AM 36.0 °F 29.0 °F 30.9 °F 82% 29.93 in 10.0 mi SSE 9.2 mph - 0.01 in Rain Light Rain
4:09 AM 36.0 °F 28.5 °F 30.9 °F 82% 29.90 in 10.0 mi SSE 10.4 mph - 0.00 in Rain Light Rain
4:51 AM 35.1 °F 28.6 °F 32.0 °F 89% 29.91 in 9.0 mi SSE 8.1 mph - 0.02 in Rain Light Rain
5:51 AM 34.0 °F 26.6 °F 30.9 °F 89% 29.91 in 9.0 mi SSE 9.2 mph - 0.03 in Rain Light Rain
6:27 AM 33.1 °F 26.1 °F 30.9 °F 92% 29.86 in 3.0 mi SSE 8.1 mph - 0.02 in Snow Light Snow
6:42 AM 33.1 °F 26.9 °F 30.9 °F 92% 29.86 in 2.5 mi SSE 6.9 mph - 0.03 in Snow Light Snow
6:49 AM 33.8 °F 27.0 °F 30.2 °F 87% 29.86 in 3.0 mi SSE 8.1 mph - 0.03 in Snow Light Snow
6:51 AM 33.1 °F 26.9 °F 30.9 °F 92% 29.89 in 4.0 mi SSE 6.9 mph - 0.04 in Snow Light Snow
7:20 AM 33.1 °F 26.1 °F 30.9 °F 92% 29.87 in 2.0 mi SSE 8.1 mph - 0.01 in Snow Light Snow
7:25 AM 33.1 °F 26.1 °F 30.9 °F 92% 29.87 in 1.8 mi SSE 8.1 mph - 0.01 in Snow Light Snow
7:38 AM 33.1 °F 26.1 °F 30.0 °F 89% 29.87 in 1.0 mi SSE 8.1 mph - 0.02 in Snow Light Snow
7:51 AM 33.1 °F 25.5 °F 30.0 °F 89% 29.90 in 1.0 mi SSE 9.2 mph - 0.04 in Snow Light Snow
8:03 AM 33.1 °F 26.1 °F 30.0 °F 89% 29.88 in 1.0 mi SSE 8.1 mph - 0.01 in Snow Light Snow
8:22 AM 33.1 °F 26.1 °F 30.0 °F 89% 29.88 in 1.2 mi SSE 8.1 mph - 0.02 in Snow Light Snow
8:29 AM 33.1 °F 26.1 °F 30.0 °F 89% 29.88 in 1.5 mi SE 8.1 mph - 0.03 in Snow Light Snow
8:41 AM 33.1 °F 26.1 °F 30.0 °F 89% 29.88 in 2.5 mi SE 8.1 mph - 0.03 in Snow Light Snow
8:51 AM 33.1 °F 26.9 °F 30.0 °F 89% 29.91 in 1.8 mi SE 6.9 mph - 0.04 in Snow Light Snow
9:20 AM 33.1 °F 28.7 °F 30.9 °F 92% 29.88 in 2.0 mi SSE 4.6 mph - 0.01 in Snow Light Snow
9:24 AM 33.1 °F 27.7 °F 30.9 °F 92% 29.88 in 3.0 mi SSE 5.8 mph - 0.01 in Snow Light Snow
9:28 AM 33.1 °F 26.9 °F 30.9 °F 92% 29.88 in 2.5 mi SSE 6.9 mph - 0.01 in Snow Light Snow
9:41 AM 33.1 °F 26.1 °F 30.9 °F 92% 29.88 in 3.0 mi SSE 8.1 mph - 0.02 in Snow Light Snow
9:46 AM 33.8 °F 27.0 °F 30.2 °F 87% 29.88 in 2.5 mi SSE 8.1 mph - 0.02 in Snow Light Snow
9:51 AM 33.1 °F 26.9 °F 30.9 °F 92% 29.92 in 1.8 mi SSE 6.9 mph - 0.02 in Snow Light Snow
10:00 AM 33.1 °F 26.9 °F 30.9 °F 92% 29.88 in 3.0 mi SSE 6.9 mph - 0.01 in Snow Light Snow
10:51 AM 36.0 °F 32.1 °F 33.1 °F 89% 29.93 in 8.0 mi SSE 4.6 mph - 0.02 in Rain Light Rain
11:36 AM 37.9 °F 32.1 °F 34.0 °F 86% 29.91 in 10.0 mi South 8.1 mph - 0.03 in Rain Light Rain
11:51 AM 37.9 °F 32.7 °F 34.0 °F 86% 29.94 in 10.0 mi SE 6.9 mph - 0.03 in   Overcast
12:51 PM 39.9 °F 35.1 °F 35.1 °F 83% 29.94 in 10.0 mi SSE 6.9 mph - 0.01 in Rain Light Rain
1:34 PM 42.1 °F 37.1 °F 35.1 °F 76% 29.90 in 10.0 mi South 8.1 mph - 0.00 in   Overcast
2:40 PM 44.1 °F 37.7 °F 35.1 °F 71% 29.87 in 10.0 mi SSE 12.7 mph 20.7 mph 0.00 in   Overcast
2:51 PM 44.1 °F 38.6 °F 35.1 °F 71% 29.88 in 10.0 mi SSE 10.4 mph - 0.00 in   Overcast
3:51 PM 42.1 °F 34.9 °F 35.1 °F 76% 29.89 in 5.0 mi South 13.8 mph - 0.00 in Rain Light Rain
3:57 PM 42.1 °F 35.7 °F 35.1 °F 76% 29.88 in 4.0 mi South 11.5 mph - 0.02 in Rain Rain
4:29 PM 37.9 °F 31.5 °F 34.0 °F 86% 29.89 in 2.5 mi SW 9.2 mph - 0.11 in Rain Rain
4:35 PM 37.9 °F 31.5 °F 35.1 °F 89% 29.90 in 3.0 mi SW 9.2 mph - 0.13 in Rain Rain
4:51 PM 37.0 °F 31.0 °F 34.0 °F 89% 29.93 in 6.0 mi SSE 8.1 mph - 0.18 in Rain Light Rain
5:12 PM 39.0 °F 34.8 °F 35.1 °F 86% 29.88 in 10.0 mi East 5.8 mph - 0.01 in   Mostly Cloudy
5:51 PM 39.9 °F - 35.1 °F 83% 29.91 in 10.0 mi Calm Calm - 0.01 in   Overcast
6:01 PM 39.9 °F 34.5 °F 34.0 °F 79% 29.90 in 5.0 mi SSW 8.1 mph - 0.01 in Rain Rain
6:10 PM 37.9 °F 35.5 °F 33.1 °F 83% 29.89 in 2.0 mi Variable 3.5 mph - 0.04 in Rain Rain
6:21 PM 37.9 °F - 33.1 °F 83% 29.89 in 7.0 mi Calm Calm - 0.06 in Rain Light Rain
6:27 PM 39.0 °F - 34.0 °F 82% 29.89 in 10.0 mi Calm Calm - 0.06 in Rain Light Rain
6:37 PM 39.0 °F 34.8 °F 34.0 °F 82% 29.89 in 10.0 mi NE 5.8 mph - 0.06 in   Mostly Cloudy
6:51 PM 39.0 °F 36.8 °F 35.1 °F 86% 29.92 in 10.0 mi North 3.5 mph - 0.06 in   Partly Cloudy
7:10 PM 37.9 °F 33.5 °F 35.1 °F 89% 29.88 in 10.0 mi NNW 5.8 mph - N/A   Mostly Cloudy
8:51 PM 37.0 °F 34.5 °F 34.0 °F 89% 29.90 in 10.0 mi North 3.5 mph - N/A   Overcast
9:51 PM 37.0 °F - 34.0 °F 89% 29.90 in 10.0 mi Calm Calm - N/A   Overcast
10:35 PM 36.0 °F - 34.0 °F 93% 29.87 in 10.0 mi Calm Calm - N/A   Overcast
10:48 PM 35.6 °F 32.8 °F 33.8 °F 93% 29.87 in 10.0 mi NE 3.5 mph - N/A   Overcast
10:51 PM 37.0 °F 34.5 °F 34.0 °F 89% 29.90 in 10.0 mi NE 3.5 mph - N/A   Overcast
11:51 PM 37.9 °F 35.5 °F 35.1 °F 89% 29.88 in 10.0 mi South 3.5 mph - 0.00 in Rain Light Rain